Cloud_Cover
56 100 100 100 100 100 100 94 24 15 15 19 13 14 10 0 0 0 0 0 0 0 5 32 100 100 100 99 99 95 100 94 100 100 100 100 17 72 70 19 43 3 0 20 0
99 92 100 100 49 35 21 60 17 32 28 27 25 19 9 0 0 0 0 0 0 0 2 0 65 100 100 100 100 100 100 100 100 100 100 100 97 4 99 100 5 5 0 50 3
100 90 100 98 83 54 24 16 5 17 14 29 26 19 0 0 0 0 0 0 0 0 0 0 2 100 100 100 100 100 100 100 100 100 100 100 53 43 14 59 15 3 0 62 5
24 90 42 94 93 34 77 28 20 0 6 19 29 7 0 0 0 0 0 0 0 0 0 0 26 100 99 100 100 100 100 100 100 100 99 98 81 60 99 14 1 20 0 24 3
57 17 24 23 52 54 40 19 0 0 1 23 30 1 0 0 0 0 0 0 0 0 0 0 87 98 100 100 100 100 100 100 100 100 100 100 47 100 16 38 1 2 0 2 2
23 23 10 22 73 81 26 2 0 0 19 41 49 3 0 0 0 0 0 0 0 0 0 0 51 80 93 100 100 100 100 100 100 100 96 91 86 92 97 100 48 4 4 0 4
11 19 22 22 35 32 22 0 0 27 30 54 40 3 0 0 0 0 0 0 0 0 0 2 29 35 35 6 92 100 100 100 100 100 100 100 100 91 100 100 52 5 61 12 98
0 0 1 16 31 20 0 0 1 58 35 28 4 0 0 0 0 0 0 0 0 0 0 4 29 38 5 5 57 100 100 100 100 100 100 100 100 77 65 99 50 6 8 7 10
0 0 0 16 0 2 0 0 0 74 27 0 0 0 0 0 0 0 0 0 0 0 0 2 5 79 13 6 40 98 100 100 100 100 100 100 100 100 100 100 100 90 95 88 26
0 0 26 46 0 0 0 0 0 8 17 0 0 0 0 0 0 0 0 0 0 0 0 2 5 5 5 5 10 15 97 100 100 100 100 100 100 100 100 100 100 100 99 62 26
0 85 100 100 100 27 4 0 0 0 0 0 0 0 0 0 0 0 0 0 0 0 0 0 1 5 0 9 44 37 82 100 100 100 100 100 100 100 100 100 100 100 50 86 100
4 100 100 100 100 100 37 0 0 0 0 0 0 0 0 0 0 0 0 0 0 0 0 0 0 43 5 24 100 94 100 100 100 100 100 100 100 100 100 100 100 100 100 100 98
36 100 100 100 98 63 0 0 0 0 0 0 0 0 0 0 0 0 0 0 0 0 0 0 0 98 40 68 87 54 23 100 100 100 100 100 100 100 100 100 100 100 97 11 48
4 59 100 94 3 0 0 0 0 0 0 0 0 0 0 0 0 2 0 0 4 0 0 0 0 91 82 100 86 36 98 81 100 100 100 100 100 100 100 100 100 100 97 50 86
0 14 100 91 42 0 0 0 0 0 0 0 0 0 0 3 0 3 4 8 7 29 0 0 0 25 100 64 100 28 73 56 5 67 100 100 100 100 100 100 100 53 92 57 75
0 50 97 34 92 0 0 0 0 0 0 0 2 0 0 5 5 1 68 92 96 91 4 0 0 48 98 100 55 97 37 97 5 17 11 100 100 100 100 97 100 100 92 79 56
14 82 90 0 0 0 0 0 0 0 0 25 4 2 1 5 5 3 55 99 100 100 100 89 0 33 100 100 11 7 100 99 59 44 39 82 100 100 100 88 99 56 80 100 88
25 80 34 5 0 0 0 0 0 5 1 8 78 3 59 25 9 86 100 60 100 100 100 100 11 95 9 14 23 100 100 100 100 95 60 99 100 100 100 100 96 90 95 100 81
8 29 8 0 0 0 4 4 0 1 16 38 23 5 5 97 81 81 98 100 100 100 100 100 100 99 100 100 62 64 100 100 98 100 90 84 100 100 100 100 100 79 93 100 100
0 0 0 0 0 0 0 0 0 5 3 1 4 52 85 79 78 93 100 71 97 88 98 100 100 84 11 59 58 11 70 90 94 97 81 63 100 100 100 100 100 99 85 85 99
0 0 0 0 0 0 0 0 2 46 5 3 5 26 5 44 84 95 100 100 100 50 100 88 26 43 41 1 0 5 5 66 42 99 100 58 100 100 100 98 100 95 75 34 98
0 0 0 0 0 0 3 5 42 6 8 5 5 7 76 12 100 100 100 100 100 100 100 100 100 48 15 86 9 12 92 3 4 1 66 100 100 100 100 100 100 100 99 100 95
0 0 0 0 5 35 100 84 5 33 34 2 3 5 50 100 97 100 98 85 100 100 100 100 100 97 96 14 4 1 44 92 4 0 2 23 80 100 100 100 100 100 100 95 94
0 2 3 10 72 100 100 100 5 99 34 2 4 2 8 81 100 82 99 100 100 100 100 100 100 93 96 11 5 5 0 87 43 0 0 4 12 76 31 100 100 100 100 100 84
6 81 5 7 100 100 100 45 58 100 76 5 0 63 0 96 100 100 100 100 100 100 100 100 99 100 85 52 92 100 18 5 1 0 0 0 1 66 100 100 100 100 100 100 100
23 100 8 16 100 100 88 100 71 100 76 5 3 0 0 0 2 99 100 100 100 100 89 100 100 100 100 100 100 100 13 5 5 18 5 0 0 0 80 100 100 100 100 100 100
100 84 5 97 100 100 44 100 100 100 100 7 0 0 4 0 0 3 100 100 100 100 100 100 100 100 100 100 100 100 74 90 64 6 3 1 0 0 82 100 100 100 100 100 100